Change the Weather History Date:

Monday, November 11, 2013

  Actual Average Record
Temperature  
Mean Temperature 17 °F -  
Max Temperature 33 °F 38 °F 57 °F (2011)
Min Temperature 1 °F 21 °F 1 °F (2013)
Degree Days  
Heating Degree Days 48    
Moisture  
Dew Point 11 °F    
Average Humidity 83    
Maximum Humidity 100    
Minimum Humidity 63    
Precipitation  
Precipitation 0.93 in - - ()
Sea Level Pressure  
Sea Level Pressure 30.48 in    
Wind  
Wind Speed 18 mph (North)    
Max Wind Speed 30 mph    
Max Gust Speed 39 mph    
Visibility 10 miles    
Events Rain , Snow    
Averages and records for this station are not official NWS values.
T = Trace of Precipitation, MM = Missing Value Source: NWS Daily Summary

Daily Weather History Graph

Daily Weather History Graph

Search for Another Location

Airport or City:

Trip Planner

Search our weather history database for the weather conditions in past years. The results will help you decide how hot, cold, wet, or windy it might be!

Date:

Astronomy

Nov. 11, 2013 Rise Set
Actual Time 7:18 AM CST 5:05 PM CST
Civil Twilight 6:47 AM CST 5:36 PM CST
Nautical Twilight 6:12 AM CST 6:11 PM CST
Astronomical Twilight 5:38 AM CST 6:45 PM CST
Moon 1:58 PM CST (11/11) 12:52 AM CST (11/11)
Length of Visible Light 10h 49m
Length of Day
9h 47m
Waxing Gibbous, 66% of the Moon is Illuminated
Nov 11
Waxing Gibbous
Nov 17
Full
Nov 25
Last Quarter
Dec 2
New
Dec 9
First Quarter

Hourly Weather History & Observations

Time (CST) Temp. Windchill Dew Point Humidity Pressure Visibility Wind Dir Wind Speed Gust Speed Precip Events Conditions
12:10 AM 33.8 °F 22.5 °F 33.8 °F 100% 30.13 in 10.0 mi NNE 19.6 mph 28.8 mph N/A Rain Light Rain
12:30 AM 32.0 °F 18.6 °F 32.0 °F 100% 30.14 in 10.0 mi NNE 25.3 mph 31.1 mph N/A   Mostly Cloudy
12:50 AM 28.4 °F 14.7 °F 28.4 °F 100% 30.14 in 10.0 mi NNE 21.9 mph 32.2 mph N/A   Overcast
1:10 AM 26.6 °F 12.0 °F 26.6 °F 100% 30.14 in 10.0 mi NNE 23.0 mph 31.1 mph N/A   Mostly Cloudy
1:30 AM 26.6 °F 11.4 °F 26.6 °F 100% 30.18 in 10.0 mi NNE 25.3 mph 35.7 mph N/A   Mostly Cloudy
1:50 AM 24.8 °F 8.4 °F 23.0 °F 93% 30.20 in 10.0 mi NNE 27.6 mph 38.0 mph N/A   Mostly Cloudy
2:10 AM 23.0 °F 6.6 °F 19.4 °F 86% 30.21 in 10.0 mi NNE 25.3 mph 34.5 mph N/A   Mostly Cloudy
2:30 AM 23.0 °F 6.6 °F 14.0 °F 68% 30.23 in 10.0 mi NNE 25.3 mph 33.4 mph N/A   Overcast
2:50 AM 23.0 °F 7.6 °F 12.2 °F 63% 30.21 in 10.0 mi NNE 21.9 mph 28.8 mph N/A   Mostly Cloudy
3:10 AM 21.2 °F 6.0 °F 10.4 °F 63% 30.22 in 10.0 mi NE 19.6 mph 29.9 mph N/A Snow Light Snow
3:30 AM 21.2 °F 4.2 °F 14.0 °F 74% 30.25 in 10.0 mi NNE 25.3 mph 31.1 mph N/A Snow Light Snow
3:50 AM 19.4 °F 2.5 °F 14.0 °F 80% 30.26 in 10.0 mi NNE 23.0 mph 34.5 mph N/A Rain Light Freezing Rain
4:10 AM 19.4 °F 2.8 °F 14.0 °F 80% 30.28 in 10.0 mi NNE 21.9 mph 31.1 mph N/A Snow Light Snow
4:30 AM 17.6 °F -1.9 °F 10.4 °F 73% 30.28 in 10.0 mi NNE 29.9 mph 39.1 mph N/A   Mostly Cloudy
4:50 AM 17.6 °F -0.3 °F 14.0 °F 86% 30.30 in 10.0 mi NE 24.2 mph 28.8 mph 0.01 in Snow Light Snow
5:10 AM 17.6 °F 0.1 °F 15.8 °F 93% 30.32 in 1.8 mi NNE 23.0 mph 34.5 mph 0.02 in Snow Light Snow
5:30 AM 15.8 °F -1.5 °F 15.8 °F 100% 30.33 in 0.8 mi NNE 20.7 mph 26.5 mph 0.23 in Snow Light Snow
5:50 AM 15.8 °F -1.1 °F 15.8 °F 100% 30.34 in - NNE 19.6 mph 25.3 mph 0.33 in Snow Heavy Snow
6:10 AM 15.8 °F 1.4 °F 15.8 °F 100% 30.35 in 0.8 mi NNE 13.8 mph 20.7 mph 0.14 in Snow Light Snow
6:30 AM 15.8 °F 2.1 °F 15.8 °F 100% 30.36 in - NNE 12.7 mph - 0.41 in Snow Heavy Snow
6:50 AM 15.8 °F -0.6 °F 15.8 °F 100% 30.38 in - North 18.4 mph 23.0 mph 0.55 in Snow Heavy Snow
7:10 AM 15.8 °F 1.4 °F 15.8 °F 100% 30.39 in 1.8 mi NNE 13.8 mph - 0.04 in Snow Light Snow
7:30 AM 15.8 °F 0.3 °F 15.8 °F 100% 30.39 in 10.0 mi North 16.1 mph 19.6 mph 0.04 in Rain Light Freezing Rain
7:50 AM 15.8 °F -0.2 °F 14.0 °F 93% 30.41 in 10.0 mi North 17.3 mph - 0.04 in   Mostly Cloudy
8:10 AM 15.8 °F -1.1 °F 12.2 °F 86% 30.42 in 10.0 mi NNE 19.6 mph 25.3 mph N/A   Clear
8:30 AM 15.8 °F -1.5 °F 12.2 °F 86% 30.43 in 10.0 mi NNE 20.7 mph 25.3 mph N/A   Clear
8:50 AM 15.8 °F -1.9 °F 12.2 °F 86% 30.44 in 10.0 mi North 21.9 mph 27.6 mph N/A   Clear
9:10 AM 15.8 °F -0.2 °F 14.0 °F 93% 30.46 in 10.0 mi North 17.3 mph - N/A   Partly Cloudy
9:30 AM 15.8 °F -0.6 °F 12.2 °F 86% 30.47 in 10.0 mi NNE 18.4 mph 21.9 mph N/A   Mostly Cloudy
9:50 AM 15.8 °F -1.5 °F 10.4 °F 79% 30.47 in 10.0 mi North 20.7 mph 24.2 mph N/A   Partly Cloudy
10:10 AM 15.8 °F -1.5 °F 8.6 °F 73% 30.48 in 10.0 mi North 20.7 mph 24.2 mph N/A   Clear
10:30 AM 15.8 °F -1.1 °F 8.6 °F 73% 30.49 in 10.0 mi NNE 19.6 mph - N/A   Clear
10:50 AM 15.8 °F -0.2 °F 8.6 °F 73% 30.50 in 10.0 mi NNE 17.3 mph - N/A   Mostly Cloudy
11:10 AM 17.6 °F 2.7 °F 8.6 °F 68% 30.51 in 10.0 mi North 16.1 mph - N/A   Scattered Clouds
11:30 AM 17.6 °F 0.5 °F 8.6 °F 68% 30.52 in 10.0 mi NNE 21.9 mph 26.5 mph N/A   Partly Cloudy
11:50 AM 17.6 °F 1.7 °F 8.6 °F 68% 30.53 in 10.0 mi NNE 18.4 mph 25.3 mph N/A   Clear
12:10 PM 17.6 °F 2.7 °F 10.4 °F 73% 30.53 in 10.0 mi North 16.1 mph 20.7 mph N/A   Clear
12:30 PM 17.6 °F 2.7 °F 10.4 °F 73% 30.53 in 10.0 mi North 16.1 mph 20.7 mph N/A   Partly Cloudy
12:50 PM 19.4 °F 5.0 °F 10.4 °F 68% 30.53 in 10.0 mi NNE 16.1 mph - N/A   Partly Cloudy
1:10 PM 17.6 °F 3.7 °F 10.4 °F 73% 30.53 in 10.0 mi North 13.8 mph - N/A   Scattered Clouds
1:30 PM 17.6 °F 2.7 °F 10.4 °F 73% 30.54 in 10.0 mi North 16.1 mph - N/A   Partly Cloudy
1:50 PM 17.6 °F 3.2 °F 10.4 °F 73% 30.54 in 10.0 mi North 15.0 mph - N/A   Clear
2:10 PM 17.6 °F 2.7 °F 8.6 °F 68% 30.55 in 10.0 mi North 16.1 mph - N/A   Clear
2:30 PM 17.6 °F 3.2 °F 10.4 °F 73% 30.55 in 10.0 mi NNW 15.0 mph - N/A   Partly Cloudy
2:50 PM 19.4 °F 5.5 °F 8.6 °F 63% 30.56 in 10.0 mi North 15.0 mph - N/A   Partly Cloudy
3:10 PM 19.4 °F 5.5 °F 8.6 °F 63% 30.56 in 10.0 mi North 15.0 mph - N/A   Clear
3:30 PM 17.6 °F 3.2 °F 8.6 °F 68% 30.57 in 10.0 mi North 15.0 mph 18.4 mph N/A   Clear
3:50 PM 17.6 °F 4.3 °F 8.6 °F 68% 30.57 in 10.0 mi North 12.7 mph 17.3 mph N/A   Clear
4:10 PM 17.6 °F 2.7 °F 8.6 °F 68% 30.59 in 10.0 mi North 16.1 mph 19.6 mph N/A   Clear
4:30 PM 17.6 °F 4.3 °F 8.6 °F 68% 30.59 in 10.0 mi North 12.7 mph - N/A   Clear
4:50 PM 15.8 °F 3.4 °F 6.8 °F 68% 30.60 in 10.0 mi North 10.4 mph - N/A   Clear
5:10 PM 15.8 °F 4.2 °F 6.8 °F 68% 30.61 in 10.0 mi NNW 9.2 mph - N/A   Clear
5:30 PM 14.0 °F 1.2 °F 6.8 °F 73% 30.61 in 10.0 mi North 10.4 mph - N/A   Clear
5:50 PM 14.0 °F 2.0 °F 6.8 °F 73% 30.62 in 10.0 mi NNW 9.2 mph - N/A   Clear
6:10 PM 14.0 °F 2.0 °F 6.8 °F 73% 30.63 in 10.0 mi NNW 9.2 mph - N/A   Clear
6:30 PM 12.2 °F 0.7 °F 6.8 °F 79% 30.64 in 10.0 mi NNW 8.1 mph - N/A   Clear
6:50 PM 12.2 °F -1.8 °F 6.8 °F 79% 30.65 in 10.0 mi NNW 11.5 mph - N/A   Clear
7:10 PM 10.4 °F -2.4 °F 6.8 °F 85% 30.66 in 10.0 mi NNW 9.2 mph - N/A   Clear
7:30 PM 10.4 °F -2.4 °F 5.0 °F 79% 30.67 in 10.0 mi North 9.2 mph - N/A   Clear
7:50 PM 8.6 °F -4.7 °F 5.0 °F 85% 30.67 in 10.0 mi North 9.2 mph - N/A   Clear
8:10 PM 8.6 °F -3.7 °F 5.0 °F 85% 30.68 in 10.0 mi North 8.1 mph - N/A   Clear
8:30 PM 8.6 °F -3.7 °F 5.0 °F 85% 30.68 in 10.0 mi North 8.1 mph - N/A   Clear
8:50 PM 6.8 °F -6.9 °F 5.0 °F 92% 30.69 in 10.0 mi North 9.2 mph - N/A   Clear
9:10 PM 6.8 °F -6.9 °F 5.0 °F 92% 30.69 in 10.0 mi North 9.2 mph - N/A   Clear
9:30 PM 6.8 °F -5.9 °F 5.0 °F 92% 30.70 in 10.0 mi North 8.1 mph - N/A   Clear
9:50 PM 6.8 °F -6.9 °F 5.0 °F 92% 30.71 in 10.0 mi North 9.2 mph - N/A   Clear
10:10 PM 5.0 °F -6.9 °F 5.0 °F 100% 30.72 in 10.0 mi North 6.9 mph - N/A   Clear
10:30 PM 5.0 °F -5.6 °F 5.0 °F 100% 30.72 in 10.0 mi NNW 5.8 mph - N/A   Clear
10:50 PM 3.2 °F -9.1 °F 1.4 °F 92% 30.74 in 10.0 mi North 6.9 mph - N/A   Clear
11:10 PM 5.0 °F -4.1 °F 5.0 °F 100% 30.73 in 10.0 mi NW 4.6 mph - N/A   Clear
11:30 PM 1.4 °F -11.3 °F 1.4 °F 100% 30.74 in 10.0 mi NW 6.9 mph - N/A   Clear
11:50 PM 3.2 °F -9.1 °F 3.2 °F 100% 30.75 in 10.0 mi NNW 6.9 mph - N/A   Clear